Theta_e
281 277 272 273 275 275 273 272 271 274 276 274 274 274 275 277 277 276 276 277 278 279 282 284 284 285 285 287 288 286 287 289 292 299 323 331 331 333 334 335 336 335 333 332
280 272 275 277 276 274 273 271 271 273 276 274 273 274 274 276 275 276 275 276 277 278 279 282 282 282 283 283 284 285 285 285 290 294 300 319 331 332 333 333 335 336 333 332
274 274 276 275 274 271 272 271 269 269 273 276 273 272 272 275 276 276 276 277 277 277 278 279 280 280 281 281 282 283 283 284 289 291 296 308 331 330 329 330 332 333 333 331
275 277 274 273 271 272 269 273 271 271 270 268 273 266 271 272 273 274 274 275 275 276 278 279 279 279 279 280 281 283 283 283 287 289 292 300 320 324 327 328 330 330 331 330
273 273 272 271 271 273 270 273 272 272 270 270 271 269 269 272 269 271 273 273 275 276 277 278 279 280 280 280 279 281 281 282 283 285 289 297 300 327 328 328 329 328 329 330
274 277 275 272 274 274 274 272 273 273 272 265 269 268 266 267 268 270 272 273 274 275 277 278 279 280 279 279 279 280 280 280 281 283 286 292 297 316 325 326 326 326 327 328
275 273 275 274 272 274 272 269 266 265 265 264 270 269 267 270 271 272 271 272 274 275 276 277 277 278 278 278 278 278 278 278 279 280 283 287 293 296 324 325 325 324 324 325
270 270 271 273 270 267 269 267 262 257 261 263 270 265 268 271 274 274 274 274 274 274 275 276 277 277 278 277 277 277 276 277 278 278 280 285 290 295 314 326 325 324 324 325
269 269 273 272 271 272 268 265 265 262 266 262 267 268 270 273 272 272 272 273 272 273 274 275 276 277 277 277 277 277 276 276 277 278 279 283 287 292 297 319 325 325 325 325
269 266 271 271 271 271 270 269 263 265 259 258 264 266 268 267 268 270 270 271 272 273 274 275 276 276 277 277 277 277 276 276 276 277 278 281 284 289 293 301 321 325 325 325
270 267 270 270 267 265 268 267 266 264 264 259 259 265 271 268 269 268 270 272 272 272 274 274 275 276 276 277 276 276 276 275 276 277 278 279 282 286 291 295 301 319 324 324
273 269 266 269 265 266 266 266 265 263 261 264 261 262 273 271 271 272 272 272 273 273 275 275 275 275 275 275 276 275 275 275 275 276 277 278 280 283 286 290 293 299 315 323
273 269 266 267 264 266 265 266 263 264 263 261 260 265 272 272 273 274 273 273 273 274 275 275 275 274 274 274 275 275 275 275 275 276 277 277 278 280 283 286 291 295 300 312
274 270 268 267 270 271 268 265 263 263 261 263 263 265 269 271 271 272 273 272 273 274 275 274 274 274 274 274 274 274 275 275 275 276 276 276 277 278 281 284 289 292 296 302
272 266 270 270 270 270 269 268 267 260 263 261 265 263 267 270 270 271 271 272 273 273 274 273 274 274 274 274 274 274 275 275 276 275 275 276 277 278 280 282 285 290 294 297
272 268 269 267 271 268 267 269 269 267 264 263 264 262 269 272 271 271 272 273 272 272 273 273 274 273 274 274 274 274 274 275 276 275 275 276 277 278 278 280 283 287 291 295
270 269 268 266 269 269 266 269 269 269 269 265 263 271 274 272 272 272 272 272 272 272 272 273 273 273 274 274 275 274 275 276 275 275 275 276 276 277 278 279 282 284 287 290
270 268 268 266 268 264 269 273 272 271 271 271 269 271 272 273 274 274 274 273 272 272 272 273 273 273 274 275 275 276 276 276 275 275 275 276 276 276 278 279 280 283 285 287
272 269 267 263 265 270 270 270 268 267 269 274 272 273 274 274 272 273 275 274 273 273 273 273 274 274 275 275 275 275 275 275 275 274 275 276 277 277 277 278 279 281 283 285
270 270 267 265 262 265 270 270 272 271 266 274 273 273 272 272 267 271 273 274 274 274 274 274 274 275 275 275 275 275 274 274 273 274 276 277 277 277 277 278 280 282 283 283
265 266 264 266 265 270 274 271 272 266 270 274 274 274 273 271 272 274 274 274 274 274 274 275 275 274 274 275 275 274 274 273 274 275 276 276 278 278 278 279 280 281 281 282
268 266 266 267 265 263 273 269 268 275 274 274 274 274 273 274 274 274 274 273 274 274 274 274 274 274 274 275 274 273 273 274 275 275 275 275 276 277 279 279 279 280 281 280
267 273 273 271 273 274 274 276 276 273 273 275 274 275 274 273 273 274 273 274 274 274 274 274 273 273 274 274 274 272 273 274 274 274 274 275 275 276 277 278 279 278 279 279
271 271 269 269 278 274 275 274 276 274 271 274 275 273 273 271 273 273 274 274 273 274 273 274 273 272 273 274 274 273 274 274 273 273 274 275 274 275 276 277 278 278 277 278
275 269 270 270 272 273 276 277 277 275 274 270 270 269 268 269 270 272 272 273 273 273 273 273 272 272 272 273 273 274 273 273 272 273 274 274 274 274 274 275 275 276 278 279
271 271 270 273 278 277 276 272 270 268 267 267 267 267 267 266 266 270 270 270 270 269 271 271 271 271 271 272 272 272 273 272 272 272 273 274 273 273 274 274 274 277 277 278
Wind_Speed
3 13 18 18 16 15 16 18 20 19 21 11 14 16 5 9 15 16 17 17 18 19 20 17 19 19 20 20 21 20 19 17 15 14 6 11 14 13 10 11 17 16 14 16
4 16 15 14 15 18 18 18 20 18 19 15 15 4 4 8 12 14 16 19 20 21 21 20 20 20 19 21 22 20 19 19 13 12 10 13 15 14 13 12 17 18 16 16
9 8 12 14 17 20 19 16 24 20 19 11 11 12 4 5 8 14 15 16 18 20 21 22 20 20 18 20 21 20 18 18 16 16 13 12 14 12 12 12 13 14 16 16
3 7 12 13 15 18 17 24 20 13 11 4 2 2 7 5 10 15 17 18 19 20 20 19 19 18 19 19 18 19 18 18 14 12 13 12 11 15 14 11 13 14 18 18
4 7 12 12 14 16 14 25 15 10 8 8 3 7 7 7 13 17 16 18 17 19 19 19 19 16 16 17 17 18 17 15 19 15 15 10 14 12 12 13 18 17 15 17
2 2 5 7 17 7 22 20 6 7 5 6 8 5 8 9 13 17 16 17 17 17 18 18 18 18 16 16 17 18 18 18 19 14 16 16 11 11 15 16 14 13 13 13
7 4 2 8 11 4 20 18 4 3 2 7 8 6 4 8 11 14 15 16 16 15 16 17 19 18 17 19 19 17 19 19 18 16 16 16 12 20 16 18 14 16 13 13
6 2 4 7 5 8 9 7 5 7 8 12 8 4 4 5 8 12 12 11 15 14 15 16 18 17 17 18 19 19 19 20 20 17 19 15 13 9 11 15 14 13 13 14
6 1 5 4 3 8 7 7 3 7 11 7 3 3 4 8 11 13 14 15 14 15 14 16 16 16 16 16 18 18 18 17 20 19 15 15 13 14 12 8 14 14 14 13
3 8 3 4 3 3 5 2 2 2 8 8 8 9 4 11 14 15 15 14 14 15 14 14 14 15 15 14 15 16 15 17 18 18 16 14 13 12 12 11 6 16 15 16
2 1 3 3 1 2 0 1 2 3 3 6 8 3 3 4 9 13 13 13 13 13 14 12 12 12 14 14 15 15 15 17 17 16 16 16 14 14 12 11 10 3 12 16
3 4 7 3 3 3 3 3 2 3 1 4 4 9 2 4 8 12 11 12 12 12 11 11 11 12 13 14 14 16 14 14 15 15 15 15 14 15 12 12 11 11 1 13
3 4 8 5 3 4 6 5 0 2 2 7 4 7 5 4 10 11 11 10 11 12 12 11 11 11 12 12 13 15 15 15 15 16 14 14 16 15 13 13 11 11 7 6
2 5 9 8 12 9 9 6 8 4 4 1 11 17 18 13 14 14 11 11 10 10 10 11 11 11 11 11 12 14 14 14 15 14 14 14 15 15 13 13 12 9 9 7
4 6 10 16 20 18 17 16 10 12 9 8 4 9 18 16 14 13 11 12 11 12 11 11 12 11 11 11 11 11 12 14 14 14 14 15 14 13 12 14 12 9 8 7
4 5 10 9 7 6 12 15 15 16 14 18 19 23 16 10 7 10 11 11 11 11 10 11 12 13 12 11 11 11 11 11 13 13 14 15 14 14 14 14 13 11 9 7
4 5 6 6 2 14 14 13 17 9 10 7 8 10 7 10 9 10 9 9 10 10 9 10 11 11 12 11 11 12 11 10 12 12 13 14 14 15 16 14 13 10 9 7
4 4 3 9 13 5 4 3 2 12 13 16 17 17 14 12 8 10 9 9 7 7 8 9 8 10 11 11 12 10 9 9 11 12 13 14 14 14 13 12 13 11 9 9
7 4 4 5 6 15 4 5 5 5 9 8 16 15 11 9 5 14 8 3 5 6 6 6 6 8 9 10 11 11 11 10 10 12 12 12 13 13 14 15 15 14 11 11
6 5 5 1 6 6 4 7 3 2 6 9 8 8 7 4 6 6 2 1 4 5 6 6 7 7 7 8 10 11 11 12 12 12 11 11 11 12 14 13 12 10 9 10
5 6 11 10 7 10 5 9 6 4 4 2 7 7 7 8 8 7 2 4 5 6 7 6 6 6 6 7 8 9 10 11 11 12 11 11 11 11 12 11 9 10 9 10
9 8 6 5 7 10 14 9 7 3 1 1 4 7 8 9 10 10 7 7 7 7 6 6 6 6 5 5 6 8 9 9 10 11 11 11 11 8 8 11 11 11 10 10
6 7 2 10 7 4 17 3 8 1 3 4 5 6 7 9 10 9 8 6 6 6 6 5 6 7 6 4 5 7 8 10 10 10 10 10 10 9 10 9 9 8 9 9
7 5 6 3 5 16 14 15 12 7 8 5 6 6 7 10 11 10 8 4 6 5 5 5 6 7 7 5 4 5 6 8 9 9 9 8 8 10 9 7 7 7 8 8
3 10 7 10 20 17 13 15 11 6 7 6 6 6 7 8 9 7 4 5 5 5 4 5 6 7 7 6 6 5 5 6 7 8 7 7 6 7 7 7 7 7 7 8
10 8 9 8 0 3 1 2 1 3 5 7 5 4 7 8 8 6 6 3 3 3 3 5 6 6 6 6 6 6 4 4 5 6 5 5 5 5 5 5 5 7 9 11
Wind_Direction
46 24 17 357 348 336 316 313 307 321 317 294 294 302 30 20 19 9 1 352 356 350 342 353 354 352 349 343 342 343 345 342 337 315 266 182 164 165 158 160 171 170 167 169
45 29 2 342 336 340 327 314 329 310 320 303 285 179 104 27 27 10 1 358 354 348 348 352 355 357 353 345 342 340 346 341 331 326 315 285 165 171 168 165 173 173 166 169
61 13 351 342 343 344 336 353 330 312 314 252 246 239 48 43 8 9 9 358 355 350 349 349 355 353 348 347 340 338 339 332 351 332 319 296 160 162 171 177 168 172 168 172
64 5 358 336 347 342 319 349 319 307 321 351 181 20 39 30 357 6 359 356 352 350 348 352 353 350 350 343 335 335 341 336 335 353 317 305 253 166 170 170 158 168 169 172
49 338 349 340 344 328 303 324 302 295 290 295 353 282 64 19 353 348 354 350 348 348 346 351 353 350 349 342 337 332 339 342 338 348 333 330 331 179 169 162 165 168 170 172
322 330 333 345 318 3 335 324 231 239 255 237 16 317 67 9 335 333 344 344 344 345 344 350 352 354 351 345 342 336 341 348 351 348 339 329 333 285 174 172 176 168 167 171
307 183 354 342 327 339 1 356 356 269 311 330 23 288 57 351 334 335 336 338 340 347 344 349 354 354 352 349 345 340 342 357 345 337 346 326 353 325 184 177 175 162 169 173
335 218 14 356 42 312 1 2 26 301 344 317 303 338 70 333 324 349 342 336 342 347 347 349 352 352 351 350 343 341 348 348 340 348 344 332 352 322 274 186 174 172 171 174
334 281 131 54 24 338 347 28 6 278 239 267 16 141 172 359 358 350 348 347 345 343 346 348 350 354 351 351 344 342 345 349 340 350 341 331 337 337 321 246 183 177 172 176
80 286 133 110 186 78 22 8 247 252 333 319 321 290 314 357 350 345 346 345 341 339 342 347 348 352 350 350 342 340 348 354 338 342 352 331 332 307 351 312 210 184 176 176
185 269 139 188 160 23 269 49 4 282 300 319 315 360 106 342 342 334 330 337 336 337 338 343 346 349 350 349 349 340 354 353 344 342 344 338 333 338 354 330 356 327 175 174
104 304 272 353 80 40 297 299 284 305 1 310 266 280 158 321 320 312 329 329 334 335 334 341 346 347 350 350 351 341 350 352 345 338 341 342 343 342 348 338 355 346 309 190
134 196 291 188 156 169 231 170 245 53 246 238 293 295 161 274 314 332 322 333 333 329 335 341 347 349 349 349 349 341 349 349 343 343 344 352 354 345 340 338 346 343 1 299
224 266 249 271 304 317 281 179 197 210 263 277 241 281 296 317 325 324 316 332 319 326 334 340 344 349 347 351 349 347 346 351 341 342 342 358 356 337 342 336 338 342 343 330
256 266 278 278 281 282 275 272 222 201 229 245 309 287 289 302 305 308 307 308 320 330 335 340 342 345 347 346 351 338 354 351 340 343 350 355 344 338 355 344 344 350 352 355
193 277 308 288 279 296 275 269 252 228 230 254 264 277 271 276 291 296 297 309 319 326 329 334 339 342 343 347 348 347 350 350 340 349 350 351 347 343 0 356 350 352 357 357
236 297 321 274 285 298 272 249 221 216 200 205 234 278 316 289 305 311 315 312 314 317 320 328 335 337 338 345 345 354 349 347 348 352 352 349 351 356 359 357 343 2 359 5
233 237 269 292 313 255 77 76 345 232 253 220 258 272 280 284 299 297 280 284 299 301 313 323 328 329 335 340 350 345 348 359 356 351 356 350 355 355 350 359 357 358 18 6
237 233 273 277 283 278 286 187 181 188 283 255 240 265 267 277 331 280 204 244 286 300 301 301 306 321 328 338 343 342 353 6 4 357 353 356 356 349 0 359 0 360 11 8
195 250 254 196 283 279 71 158 145 153 256 178 215 271 280 294 284 343 126 263 283 284 295 303 311 318 321 342 340 342 354 2 0 0 354 357 359 353 5 352 1 5 5 21
186 206 227 233 259 276 129 149 155 272 36 188 229 271 278 252 261 319 286 279 275 284 295 300 295 308 320 330 336 339 346 359 350 352 357 3 4 5 2 354 0 9 12 25
191 186 201 211 239 261 138 135 208 35 132 316 259 269 277 272 279 279 265 272 280 287 281 270 286 298 311 318 324 330 343 345 345 349 357 4 3 10 10 4 6 3 22 27
237 228 234 215 239 103 181 234 212 112 278 258 263 267 273 273 274 271 268 262 268 279 278 267 274 289 295 292 307 318 340 337 339 342 357 3 358 4 17 17 8 15 17 20
222 160 241 343 253 235 223 241 247 214 231 264 257 261 258 263 271 269 258 245 256 258 259 258 263 274 282 285 286 301 324 331 329 336 345 354 3 2 13 20 24 22 15 16
312 153 211 258 277 276 262 242 252 246 240 239 251 237 237 246 256 257 232 244 242 248 248 249 247 264 276 286 285 297 313 327 322 327 337 351 9 1 6 16 29 24 31 19
177 200 195 231 166 288 25 57 346 207 224 225 219 237 227 227 243 235 238 231 241 249 255 243 242 247 262 272 273 284 296 307 310 313 333 349 355 358 7 9 12 40 31 24